sat.trackr.live / text

‹ back to catalog

STARLINK-32019

NORAD 60147 · 2024-120N

PAYLOAD ACTIVE UNKNOWN

§ Identity

Operator
Country
US
Launch date
2024-06-27
Launch site
AFETR
Launch vehicle
Mass (kg)
RCS (m²)

Purposes: comms

External: N2YO · Heavens-Above · Gunter

§ Orbital elements

Epoch: 2026-05-25T04:49:09.760224Z

Period
94.11 min
Inclination
53.1617°
Eccentricity
0.0000966
Mean motion
15.30191681 rev/d
Perigee alt
474.6 km
Apogee alt
475.9 km
Semi-major
6,853.4 km
B*
2.2488e-5
RAAN
324.3060°
Arg perigee
101.5519°
Mean anomaly
258.5590°
Rev number
10,809

§ Raw data

STARLINK-320191 60147U 24120N   26145.20080741  .00000307  00000+0  22488-4 0  99942 60147  53.1617 324.3060 0000966 101.5519 258.5590 15.30191681108091

JSON: /api/v1/satellites/60147 · /tle

For live sub-satellite position, see the globe view (requires WebGL).

§ Visibility from observer

Set your observer location to see the next 7 days of passes ≥ 10°. The values pass through the URL so the page stays shareable.

No JS? Fill the form by hand. The geolocation button needs JavaScript.